Location: Bornwerd
(53.3343°N, 5.9547°E)
Time: 15:48:49
(UTC+00:00)

Daily predictions for brighter satellites

Satellite Brightness Start Highest point End
(mag) Time Altitude Azimuth Time Altitude Azimuth Time Altitude Azimuth
Cosmos 1869 Rocket 3.7 20:24:42 10° N 20:29:11 65° ENE 20:33:37 10° SSE
SL-24 R/B - RUBIN 2 3.7 20:25:11 10° NW 20:29:35 74° NE 20:34:05 10° SE
Cosmos 1980 Rocket 2.4 20:25:43 10° S 20:31:10 53° ESE 20:36:41 10° NE
CARTOSAT-1 3.7 20:27:43 10° SSE 20:32:02 84° WSW 20:36:23 10° NNW
ARGOS Delta rocket 4.4 20:29:05 10° N 20:34:36 81° WNW 20:40:03 10° SSW
Cosmos 2228 Rocket 3.7 20:30:37 10° SSE 20:34:54 41° E 20:39:11 10° NNE
Cosmos 1464 Rocket 4.0 20:29:52 10° S 20:36:04 88° ESE 20:42:15 10° N
ISS -2.9 20:35:00 10° W 20:38:07 36° SSW 20:41:14 10° SE
Cosmos 1378 4.1 20:35:14 10° SSE 20:38:26 29° E 20:41:38 10° NNE
Cosmos 2344 3.6 20:31:59 10° SSW 20:39:13 59° SE 20:46:52 10° NE
Cosmos 773 Rocket 4.2 20:34:11 10° NNW 20:39:26 76° WSW 20:44:36 10° SSE
Cosmos 1536 4.2 20:35:52 10° NNW 20:39:37 38° W 20:43:22 10° SSW
Cosmos 1844 Rocket 3.9 20:34:50 10° NNW 20:39:55 34° NE 20:44:59 10° ESE
Cosmos 2322 Rocket 3.9 20:37:13 10° SE 20:40:18 15° E 20:43:22 10° ENE
Cosmos 2369 3.7 20:35:13 10° SSW 20:40:49 68° ESE 20:46:28 10° NE
Spot 2 Rocket 3.5 20:36:31 10° SSE 20:41:32 76° ENE 20:46:36 10° NNW
Cosmos 1354 Rocket 4.1 20:36:31 10° S 20:41:41 59° ESE 20:46:56 10° NNE
SPOT 3 Rocket 3.8 20:37:38 10° S 20:42:46 74° WSW 20:47:57 10° NNW
ATLAS 2AS CENTAUR R/B 3.2 20:36:43 10° SSW 20:44:04 47° ESE 20:51:11 10° NE
H-2A R/B 3.4 20:40:35 10° N 20:44:27 41° WNW 20:48:18 10° SW
Cosmos 1092 Rocket 4.1 20:39:10 10° N 20:45:23 70° ENE 20:51:30 10° SSE
Okean 1 3.3 20:42:09 10° S 20:46:07 67° E 20:50:09 10° NNE
Nadezhda 4 Rocket 4.2 20:39:57 10° NNW 20:46:12 75° W 20:52:20 10° S
Meteor 2-4 Rocket 4.4 20:41:29 10° SSE 20:46:47 39° E 20:51:58 10° NNE
Cosmos 1486 Rocket 4.4 20:41:54 10° SSW 20:47:12 73° WNW 20:52:30 10° NNE
SL-4 R/B 4.4 20:45:48 10° WSW 20:48:11 14° SW 20:50:30 10° SSW
Meteor 1-19 Rocket 4.2 20:42:57 10° S 20:48:19 67° E 20:53:42 10° NNE
NOSS 3-4 (A) 3.5 20:42:41 10° SW 20:48:29 83° NW 20:54:57 10° NE
NOSS 3-4 (C) 3.5 20:42:44 10° SW 20:48:33 83° NW 20:55:00 10° NE
RESURS DK-1 2.8 20:46:03 10° S 20:49:53 40° ESE 20:53:46 10° NE
Cosmos 1697 Rocket 3.1 20:44:21 10° SW 20:50:01 72° NW 20:55:43 10° NNE
USA 267 3.7 20:48:11 10° E 20:54:41 67° N 21:01:11 10° WNW
ATLAS CENTAUR R/B 3.0 20:51:11 10° NW 20:55:45 37° NNE 21:00:13 10° E
Cosmos 1634 Rocket 4.3 20:50:55 10° SSE 20:56:50 49° E 21:02:46 10° NNE
Cosmos 44 Rocket 3.3 20:52:15 10° NW 20:56:58 70° SW 21:01:28 11° SSE
ARIANE 5 R/B 2.9 20:53:41 10° SSE 20:58:05 59° ENE 21:02:32 10° N
Cosmos 1707 Rocket 4.2 20:54:29 10° SSE 20:58:36 39° E 21:02:42 10° NNE
Cosmos 2227 4.3 20:56:38 10° NNW 21:02:26 84° WSW 21:07:59 11° SSE
Cosmos 158 Rocket 4.1 20:59:10 10° NNW 21:04:18 78° WSW 21:09:24 11° SSE
Cosmos 1184 Rocket 4.2 21:02:41 10° SW 21:05:31 35° WNW 21:08:21 10° N
ATLAS 3B R/B 3.0 20:58:40 10° NW 21:05:59 89° SW 21:13:24 11° SE
Cosmos 1975 2.9 21:05:31 10° NNW 21:09:37 88° WSW 21:13:33 11° S
NOSS 2-1 (E) 4.3 21:08:10 12° SSE 21:09:58 18° ESE 21:12:18 10° ENE
Cosmos 2026 Rocket 4.0 21:04:27 10° N 21:10:39 88° E 21:16:54 10° S
USA 81 4.2 21:09:10 10° SSE 21:14:18 58° E 21:19:30 10° NNE
CZ-4B R/B 4.0 21:12:36 10° NNW 21:15:06 21° WNW 21:17:34 10° WSW
NOSS 3-1 (C) 4.5 21:09:36 10° NW 21:16:19 57° NNE 21:24:26 10° ESE
Cosmos 1503 Rocket 4.4 21:11:14 10° SW 21:16:30 69° WNW 21:21:52 10° NNE
Meteor 1-4 Rocket 3.3 21:13:42 10° N 21:16:58 37° ENE 21:19:36 14° SE
ERS-1 Rocket 3.2 21:12:45 10° S 21:17:46 67° WSW 21:22:49 10° NNW
CZ-4C R/B 3.6 21:11:29 10° NW 21:17:46 48° NNE 21:25:22 10° E
SL-16 R/B 2.8 21:13:54 10° S 21:19:02 37° ESE 21:24:13 10° NE
Cosmos 1538 Rocket 4.1 21:14:24 10° NNW 21:19:41 81° WSW 21:24:18 13° SSE
CZ-2C R/B 3.8 21:17:27 10° NNE 21:22:14 76° ESE 21:27:01 10° S
Helios 1A Rocket 4.0 21:19:41 10° SSW 21:23:26 37° W 21:27:12 10° NNW
Cosmos 1733 Rocket 3.1 21:19:25 10° N 21:23:54 80° E 21:27:44 14° SSE
SAR-Lupe-4 4.1 21:27:24 10° NNE 21:30:51 40° E 21:33:22 16° SSE
Meteor 2-8 Rocket 4.4 21:25:28 10° S 21:31:32 74° E 21:37:37 10° NNE
Geosat 4.0 21:28:35 14° SE 21:32:54 90° SW 21:37:58 10° NNW
SJ 16-02 1.9 21:29:24 10° SW 21:33:43 62° WNW 21:38:06 10° NNE
Meteor 1-18 Rocket 4.3 21:28:29 10° SSW 21:34:12 82° WNW 21:39:51 10° NNE
Cosmos 1908 Rocket 4.2 21:31:18 10° N 21:35:26 42° ENE 21:38:37 16° SE
Cosmos 2292 Rocket 4.0 21:32:43 10° NNW 21:35:34 33° W 21:38:16 10° SSW
Iridium 45 4.4 21:33:05 13° S 21:36:09 88° E 21:39:41 10° N
Cosmos 1356 4.4 21:35:10 18° SE 21:36:54 29° E 21:39:49 10° NNE
Cosmos 923 Rocket 4.2 21:32:27 10° NNW 21:37:48 72° ENE 21:42:10 16° SE
Cosmos 2278 3.8 21:33:51 10° SSW 21:39:31 85° WNW 21:45:16 10° NNE
Cosmos 1862 Rocket 3.7 21:37:31 14° S 21:41:19 64° E 21:45:47 10° NNE
Cosmos 1726 3.3 21:39:26 10° N 21:42:46 32° ENE 21:45:09 16° SE
Cosmos 2263 Rocket 3.4 21:39:20 10° NW 21:44:13 32° WSW 21:49:04 10° SSW
Cosmos 2360 Rocket 3.2 21:40:42 16° SSE 21:44:13 29° ESE 21:49:00 10° NE
Cosmos 2266 Rocket 4.3 21:40:15 10° N 21:46:27 57° ENE 21:51:20 16° SSE
Meteor 2-15 4.4 21:41:13 10° S 21:47:17 87° E 21:53:25 10° NNE
ALOS 2 4.1 21:44:37 11° ESE 21:48:08 26° ENE 21:51:48 10° N
NOSS 2-1 (C) 3.0 21:47:02 10° SSW 21:50:09 47° SE 21:53:21 10° NE
SPOT 5 4.3 21:46:25 10° SSW 21:51:12 34° W 21:55:52 10° NNW
SAR-Lupe-1 4.0 21:48:20 10° NNE 21:51:57 79° ESE 21:54:47 16° S
Terra 2.7 21:47:57 11° SSW 21:52:19 42° W 21:56:53 10° NNW
Cosmos 1441 Rocket 3.2 21:51:03 18° S 21:53:41 62° E 21:57:23 10° NNE
Cosmos 1346 Rocket 3.0 21:50:23 10° SSW 21:54:23 72° WNW 21:58:26 10° N
Cosmos 2112 Rocket 4.2 21:53:02 10° NNW 21:58:24 70° ENE 22:02:27 17° SE
Cosmos 2279 Rocket 4.0 21:53:29 12° S 21:59:20 85° E 22:05:36 10° NNE
USA 215 4.1 21:53:53 10° ENE 21:59:22 28° SE 22:03:42 15° S
Cosmos 1680 Rocket 3.6 21:54:08 10° NNW 21:59:29 80° ENE 22:03:26 18° SSE
Cosmos 2278 Rocket 4.0 21:54:48 10° NNW 21:59:36 27° NE 22:04:23 10° E
NOSS 2-1 (D) 2.7 21:57:26 10° SSW 22:00:35 59° SE 22:03:51 10° NE
Iridium 2 3.9 21:57:59 10° N 22:01:45 66° W 22:04:23 18° S
Cosmos 990 Rocket 4.2 21:57:54 15° S 22:02:06 54° ESE 22:07:13 10° NNE
Meteor 1-12 Rocket 4.4 21:58:28 10° NNW 22:04:28 81° ENE 22:08:54 18° SSE
Cosmos 1818 3.6 22:02:27 10° NW 22:07:58 85° SW 22:12:08 18° SE
Cosmos 1066 Rocket 4.2 22:05:06 15° S 22:09:55 76° E 22:15:34 10° NNE
ADEOS Rocket 3.9 22:05:31 11° SE 22:10:26 38° ENE 22:16:04 10° N
Iridium 4 Rocket 3.4 22:06:00 10° N 22:10:29 61° E 22:13:44 20° SSE
Spot 4 4.1 22:07:13 19° SE 22:10:38 61° ENE 22:15:23 10° N
ISS -1.4 22:13:16 10° WSW 22:14:11 11° SW 22:14:21 11° SW
Cosmos 1980 Rocket 3.7 22:10:06 10° WSW 22:15:23 39° NW 22:20:44 10° NNE
Cosmos 1898 Rocket 3.9 22:11:50 19° S 22:15:28 49° ESE 22:20:36 10° NE
Okean 1-7 3.2 22:17:25 22° S 22:20:09 60° E 22:24:28 10° NNE
Iridium 51 3.9 22:21:01 24° S 22:22:59 90° N 22:26:37 10° N
Cosmos 2322 Rocket 2.1 22:18:01 11° SSW 22:23:23 75° ESE 22:29:01 10° NE
Cosmos 1844 Rocket 2.9 22:18:40 10° NW 22:24:12 62° WSW 22:27:57 21° S
Cosmos 1805 4.0 22:22:15 10° NNW 22:26:00 44° W 22:28:28 19° SSW
Okean 3 3.7 22:25:02 23° SSE 22:27:24 54° E 22:31:35 10° NNE
RESURS DK-1 4.1 22:24:11 10° WSW 22:27:58 34° NW 22:31:45 10° NNE
Cosmos 2333 Rocket 3.0 22:25:18 20° SSE 22:28:23 35° ESE 22:33:29 10° NE
H-2A R/B 4.1 22:26:31 10° NNE 22:30:23 38° E 22:32:21 24° SSE
Cosmos 1461 3.2 22:26:28 10° NW 22:30:34 65° NE 22:33:54 16° ESE
BREEZE-M DEB (TANK) 4.0 22:29:57 10° WSW 22:31:52 18° SSW 22:31:52 18° SSW
USA 229 DEB 4.2 22:26:29 10° NW 22:33:36 66° NE 22:41:17 10° ESE
USA 229 4.3 22:26:35 10° NW 22:33:42 66° NE 22:41:21 10° ESE
ATLAS CENTAUR R/B 1.8 22:30:02 10° NW 22:34:54 68° SW 22:37:50 23° SSE
ATLAS 2AS CENTAUR R/B 3.4 22:27:13 10° WSW 22:34:58 67° NW 22:42:21 10° NE
USA 267 3.2 22:31:05 10° ESE 22:37:40 83° SSW 22:44:14 10° WNW
Meteor 1-23 Rocket 4.4 22:34:01 20° S 22:38:03 67° E 22:43:52 10° NNE
Cosmos 1733 4.5 22:35:40 10° NNW 22:39:04 31° W 22:41:23 17° SW
Cosmos 1766 3.6 22:37:20 10° NNW 22:41:12 56° W 22:43:23 24° SSW
NOSS 2-2 (E) 4.4 22:38:07 10° NW 22:42:42 67° NE 22:49:08 10° ESE
Cosmos 2219 Rocket 2.9 22:44:47 22° SSE 22:47:42 37° ESE 22:52:49 10° NE
Cosmos 1844 4.2 22:42:15 10° NW 22:47:52 51° WSW 22:51:27 22° S
Cosmos 1703 Rocket 3.7 22:48:16 21° SSW 22:51:12 76° WNW 22:55:38 10° N
Cosmos 2344 4.4 22:46:35 10° W 22:53:47 54° NNW 23:02:09 10° NE
Cosmos 372 Rocket 4.2 22:51:17 23° S 22:54:15 53° ESE 22:59:18 10° NNE
ATLAS 3B R/B 4.0 22:49:57 10° WNW 22:56:04 29° WSW 23:00:39 16° SSW
Cosmos 1655 Rocket 4.5 22:53:41 10° NNW 22:59:43 52° W 23:04:10 18° SSW
NOSS 2-1 (E) 3.7 22:56:50 10° WSW 22:59:56 49° NW 23:03:22 10° NE
NOSS 3-1 (A) 4.0 22:53:10 10° NW 23:00:18 90° SW 23:08:53 10° SE
Cosmos 1707 3.2 23:00:36 27° SSE 23:02:18 46° E 23:06:02 10° NNE
Cosmos 1782 Rocket 4.0 22:58:09 10° NNW 23:02:24 54° W 23:04:50 24° SSW
SL-16 R/B 3.0 22:57:29 10° SW 23:03:02 52° NW 23:08:36 10° NNE
ERS-2 2.2 23:01:46 10° NNE 23:05:22 59° ESE 23:06:52 31° S
CZ-4C R/B 2.9 22:59:57 10° NW 23:06:54 78° SW 23:14:17 14° SE
NOSS 3-1 (C) 4.1 23:00:24 10° NW 23:07:33 63° SW 23:14:02 18° SSE
Okean 2 4.2 23:06:39 24° SE 23:08:32 38° E 23:12:20 10° NNE
Cosmos 1238 Rocket 3.2 23:07:57 10° N 23:10:43 35° ENE 23:11:57 24° ESE
USA 290 3.7 23:10:46 22° ESE 23:11:17 23° ESE 23:13:54 10° NE
SJ 16-02 4.3 23:11:01 10° WNW 23:13:13 14° NW 23:15:27 10° N
SWARM A 4.5 23:12:49 31° SSW 23:14:16 63° W 23:17:39 10° N
Gblst 52 Del rocket 4.3 23:09:14 10° SW 23:15:25 56° SSE 23:20:58 10° E
Cosmos 1470 3.1 23:13:26 10° NNW 23:17:15 55° W 23:19:01 28° SSW
Cosmos 1726 3.7 23:14:36 10° NNW 23:17:39 25° W 23:19:26 17° SW
Cosmos 2237 Rocket 3.9 23:14:56 14° SE 23:17:43 20° E 23:21:40 10° NE
KORONAS-FOTON 4.4 23:16:49 27° SSE 23:18:25 43° E 23:22:03 10° NNE
Cosmos 1300 Rocket 3.7 23:14:15 10° NNW 23:18:35 66° W 23:20:51 27° S
NOSS 2-2 (D) 4.1 23:14:05 10° NW 23:18:43 86° NE 23:25:14 10° SE
Cosmos 1745 Rocket 4.5 23:14:11 10° N 23:20:19 55° ENE 23:25:02 17° SSE
COSMOS 2428 3.2 23:17:53 24° S 23:21:02 47° ESE 23:26:28 10° NE
Cosmos 2151 Rocket 3.7 23:17:02 10° N 23:21:26 67° ENE 23:23:57 25° SSE
PSLV R/B 4.4 23:17:20 10° NNE 23:21:27 39° E 23:23:40 23° SSE
ALOS 2 3.1 23:22:00 25° SSW 23:24:16 47° W 23:28:32 10° NNW
Cosmos 2242 Rocket 4.3 23:21:24 19° SW 23:24:31 50° WNW 23:28:58 10° N
Cosmos 1242 Rocket 2.4 23:20:58 10° NNW 23:24:36 85° WSW 23:26:07 33° S
Okean 2 Rocket 3.1 23:20:58 10° N 23:25:32 82° E 23:28:05 26° SSE
Cosmos 1937 Rocket 3.7 23:22:46 16° SW 23:26:55 70° WNW 23:32:14 10° NNE
Cosmos 2360 Rocket 2.6 23:22:25 11° SW 23:27:51 64° NW 23:33:30 10° NNE
Cosmos 1943 Rocket 3.9 23:23:17 10° NNW 23:28:23 32° NE 23:33:27 10° ESE
Cosmos 405 Rocket 3.8 23:28:20 22° SE 23:29:54 31° E 23:33:18 10° NNE
Cosmos 1437 Rocket 3.4 23:27:47 10° N 23:31:26 47° ENE 23:33:33 22° SE
In-Cosmos 22 4.2 23:29:31 24° S 23:32:57 74° E 23:38:25 10° NNE
Cosmos 1908 3.2 23:29:10 10° N 23:32:59 74° ENE 23:34:48 29° SSE
Cosmos 2333 4.2 23:29:02 18° SSW 23:33:19 86° WNW 23:39:01 10° NNE
Cosmos 1867 3.9 23:33:44 24° S 23:36:44 50° SE 23:42:02 10° NE
Meteor 1-21 4.3 23:34:35 23° S 23:38:21 85° ESE 23:44:12 10° NNE
Cosmos 1626 2.3 23:37:36 31° SSE 23:39:07 57° E 23:42:44 10° NNE
Cosmos 1842 4.3 23:38:57 19° SW 23:41:19 37° WNW 23:44:58 10° N
Cosmos 1953 2.8 23:38:29 10° N 23:42:27 55° ENE 23:44:46 23° SE
USA 215 3.2 23:36:36 10° ENE 23:43:10 71° SSE 23:49:43 10° SW
Cosmos 2278 Rocket 2.2 23:38:43 10° NNW 23:44:27 90° WSW 23:48:51 18° SSE
Cosmos 468 4.5 23:40:28 10° NNW 23:45:43 77° WSW 23:49:03 23° SSE
Sich 1 Rocket 4.1 23:47:32 10° NNW 23:51:46 47° W 23:54:00 25° SSW
Cosmos 1674 2.6 23:50:45 31° SSW 23:52:28 85° WNW 23:56:16 10° N
